Time,TemperatureF,DewpointF,PressureIn,WindDirection,WindDirectionDegrees,WindSpeedMPH,WindSpeedGustMPH,Humidity,HourlyPrecipIn,Conditions,Clouds,dailyrainin,SolarRadiationWatts/m^2,SoftwareType,DateUTC
2013-02-01 00:07:00,32.3,16.0,29.65,WNW,298,4.0,14.0,52,0.00,,,0.00,0,weatherlink.com 1.10,2013-02-01 05:07:00,
2013-02-01 00:22:00,32.1,17.0,29.66,West,275,6.0,15.0,54,0.00,,,0.00,0,weatherlink.com 1.10,2013-02-01 05:22:00,
2013-02-01 00:38:00,32.0,16.0,29.66,NW,308,14.0,20.0,53,0.00,,,0.00,0,weatherlink.com 1.10,2013-02-01 05:38:00,
2013-02-01 00:53:00,31.9,15.0,29.67,NW,315,12.0,15.0,50,0.00,,,0.00,0,weatherlink.com 1.10,2013-02-01 05:53:00,
2013-02-01 01:08:00,31.9,15.0,29.67,WNW,292,9.0,15.0,49,0.00,,,0.00,0,weatherlink.com 1.10,2013-02-01 06:08:00,
2013-02-01 01:23:00,31.8,14.0,29.67,WNW,284,6.0,16.0,48,0.00,,,0.00,0,weatherlink.com 1.10,2013-02-01 06:23:00,
2013-02-01 01:38:00,31.6,13.0,29.68,West,278,6.0,14.0,47,0.00,,,0.00,0,weatherlink.com 1.10,2013-02-01 06:38:00,
2013-02-01 01:53:00,31.6,12.0,29.69,WNW,284,9.0,19.0,44,0.00,,,0.00,0,weatherlink.com 1.10,2013-02-01 06:53:00,
2013-02-01 02:08:00,31.5,11.0,29.69,WSW,238,6.0,20.0,43,0.00,,,0.00,0,weatherlink.com 1.10,2013-02-01 07:08:00,
2013-02-01 02:23:00,31.5,10.0,29.70,West,281,13.0,21.0,41,0.00,,,0.00,0,weatherlink.com 1.10,2013-02-01 07:23:00,
2013-02-01 02:38:00,31.2,10.0,29.70,West,279,16.0,24.0,41,0.00,,,0.00,0,weatherlink.com 1.10,2013-02-01 07:38:00,
2013-02-01 02:53:00,31.0,10.0,29.70,WNW,300,5.0,16.0,42,0.00,,,0.00,0,weatherlink.com 1.10,2013-02-01 07:53:00,
2013-02-01 03:08:00,31.0,11.0,29.70,WNW,297,12.0,17.0,43,0.00,,,0.00,0,weatherlink.com 1.10,2013-02-01 08:08:00,
2013-02-01 03:23:00,31.0,10.0,29.70,WNW,283,10.0,21.0,42,0.00,,,0.00,0,weatherlink.com 1.10,2013-02-01 08:23:00,
2013-02-01 03:38:00,30.7,10.0,29.71,West,261,14.0,21.0,43,0.00,,,0.00,0,weatherlink.com 1.10,2013-02-01 08:38:00,
2013-02-01 03:53:00,30.5,10.0,29.72,WSW,256,6.0,18.0,43,0.00,,,0.00,0,weatherlink.com 1.10,2013-02-01 08:53:00,
2013-02-01 04:08:00,30.4,10.0,29.72,WNW,292,8.0,19.0,42,0.00,,,0.00,0,weatherlink.com 1.10,2013-02-01 09:08:00,
2013-02-01 04:23:00,30.3,10.0,29.73,WSW,257,12.0,17.0,42,0.00,,,0.00,0,weatherlink.com 1.10,2013-02-01 09:23:00,
2013-02-01 04:38:00,30.2,10.0,29.73,NW,305,12.0,14.0,42,0.00,,,0.00,0,weatherlink.com 1.10,2013-02-01 09:38:00,
2013-02-01 04:53:00,30.2,9.0,29.73,WSW,242,7.0,15.0,41,0.00,,,0.00,0,weatherlink.com 1.10,2013-02-01 09:53:00,
2013-02-01 05:08:00,30.1,9.0,29.74,West,269,9.0,16.0,41,0.00,,,0.00,0,weatherlink.com 1.10,2013-02-01 10:08:00,
2013-02-01 05:23:00,29.8,9.0,29.74,West,272,8.0,16.0,41,0.00,,,0.00,0,weatherlink.com 1.10,2013-02-01 10:23:00,
2013-02-01 05:38:00,29.5,13.0,29.75,SW,234,7.0,14.0,50,0.00,,,0.00,0,weatherlink.com 1.10,2013-02-01 10:38:00,
2013-02-01 05:53:00,29.2,14.0,29.75,West,278,1.0,11.0,53,0.00,,,0.00,0,weatherlink.com 1.10,2013-02-01 10:53:00,
2013-02-01 06:08:00,29.0,13.0,29.76,WSW,242,6.0,14.0,52,0.00,,,0.00,0,weatherlink.com 1.10,2013-02-01 11:08:00,
2013-02-01 06:23:00,28.8,13.0,29.77,WSW,254,6.0,14.0,52,0.00,,,0.00,0,weatherlink.com 1.10,2013-02-01 11:23:00,
2013-02-01 06:38:00,28.7,13.0,29.77,SW,230,5.0,10.0,51,0.00,,,0.00,0,weatherlink.com 1.10,2013-02-01 11:38:00,
2013-02-01 06:53:00,28.6,13.0,29.78,WSW,252,3.0,10.0,52,0.00,,,0.00,0,weatherlink.com 1.10,2013-02-01 11:53:00,
2013-02-01 07:08:00,28.7,13.0,29.79,West,280,3.0,11.0,51,0.00,,,0.00,18,weatherlink.com 1.10,2013-02-01 12:08:00,
2013-02-01 07:24:00,29.0,12.0,29.80,West,278,5.0,12.0,50,0.00,,,0.00,33,weatherlink.com 1.10,2013-02-01 12:24:00,
2013-02-01 07:39:00,29.0,12.0,29.80,WSW,242,6.0,12.0,50,0.00,,,0.00,30,weatherlink.com 1.10,2013-02-01 12:39:00,
2013-02-01 07:54:00,29.1,13.0,29.82,WSW,239,11.0,15.0,51,0.00,,,0.00,90,weatherlink.com 1.10,2013-02-01 12:54:00,
2013-02-01 08:09:00,29.4,13.0,29.82,West,262,5.0,16.0,51,0.00,,,0.00,146,weatherlink.com 1.10,2013-02-01 13:09:00,
2013-02-01 08:24:00,29.6,13.0,29.83,WSW,249,6.0,14.0,51,0.00,,,0.00,216,weatherlink.com 1.10,2013-02-01 13:24:00,
2013-02-01 08:39:00,29.9,14.0,29.84,West,279,6.0,19.0,51,0.00,,,0.00,253,weatherlink.com 1.10,2013-02-01 13:39:00,
2013-02-01 08:54:00,29.9,14.0,29.85,SW,231,6.0,17.0,51,0.00,,,0.00,297,weatherlink.com 1.10,2013-02-01 13:54:00,
2013-02-01 09:09:00,30.5,13.0,29.85,WSW,237,9.0,18.0,48,0.00,,,0.00,350,weatherlink.com 1.10,2013-02-01 14:09:00,
2013-02-01 09:24:00,30.5,12.0,29.86,SSW,198,7.0,19.0,46,0.00,,,0.00,274,weatherlink.com 1.10,2013-02-01 14:24:00,
2013-02-01 09:39:00,30.2,8.0,29.86,NW,318,7.0,27.0,40,0.00,,,0.00,188,weatherlink.com 1.10,2013-02-01 14:39:00,
2013-02-01 09:54:00,30.4,7.0,29.86,WNW,282,7.0,26.0,37,0.00,,,0.00,478,weatherlink.com 1.10,2013-02-01 14:54:00,
2013-02-01 10:09:00,31.1,7.0,29.85,NW,319,5.0,21.0,37,0.00,,,0.00,468,weatherlink.com 1.10,2013-02-01 15:09:00,
2013-02-01 10:24:00,31.0,7.0,29.83,NNW,331,8.0,24.0,36,0.00,,,0.00,492,weatherlink.com 1.10,2013-02-01 15:24:00,
2013-02-01 10:39:00,31.4,6.0,29.84,West,279,9.0,25.0,34,0.00,,,0.00,512,weatherlink.com 1.10,2013-02-01 15:39:00,
2013-02-01 10:54:00,31.6,7.0,29.85,WNW,299,8.0,20.0,35,0.00,,,0.00,540,weatherlink.com 1.10,2013-02-01 15:54:00,
2013-02-01 11:09:00,32.2,8.0,29.85,NNW,330,8.0,16.0,36,0.00,,,0.00,580,weatherlink.com 1.10,2013-02-01 16:09:00,
2013-02-01 11:24:00,32.1,8.0,29.85,NNW,344,6.0,17.0,36,0.00,,,0.00,659,weatherlink.com 1.10,2013-02-01 16:24:00,
2013-02-01 11:39:00,32.5,8.0,29.84,West,273,9.0,18.0,35,0.00,,,0.00,589,weatherlink.com 1.10,2013-02-01 16:39:00,
2013-02-01 11:54:00,32.6,7.0,29.84,WNW,294,9.0,17.0,34,0.00,,,0.00,622,weatherlink.com 1.10,2013-02-01 16:54:00,
2013-02-01 12:09:00,32.8,7.0,29.83,NW,323,15.0,20.0,34,0.00,,,0.00,443,weatherlink.com 1.10,2013-02-01 17:09:00,
2013-02-01 12:24:00,32.8,6.0,29.83,NNW,332,12.0,17.0,33,0.00,,,0.00,596,weatherlink.com 1.10,2013-02-01 17:24:00,
2013-02-01 12:39:00,32.6,7.0,29.82,NNW,328,10.0,19.0,34,0.00,,,0.00,580,weatherlink.com 1.10,2013-02-01 17:39:00,
2013-02-01 12:54:00,32.6,6.0,29.81,WNW,296,16.0,22.0,33,0.00,,,0.00,526,weatherlink.com 1.10,2013-02-01 17:54:00,
2013-02-01 13:09:00,33.2,6.0,29.82,WNW,302,9.0,18.0,32,0.00,,,0.00,575,weatherlink.com 1.10,2013-02-01 18:09:00,
2013-02-01 13:24:00,32.8,7.0,29.83,WNW,287,15.0,18.0,34,0.00,,,0.00,438,weatherlink.com 1.10,2013-02-01 18:24:00,
2013-02-01 13:39:00,33.2,7.0,29.83,NNW,342,12.0,19.0,33,0.00,,,0.00,209,weatherlink.com 1.10,2013-02-01 18:39:00,
2013-02-01 13:54:00,32.6,6.0,29.83,North,5,6.0,16.0,33,0.00,,,0.00,271,weatherlink.com 1.10,2013-02-01 18:54:00,
2013-02-01 14:09:00,32.6,6.0,29.83,NW,324,6.0,17.0,32,0.00,,,0.00,204,weatherlink.com 1.10,2013-02-01 19:09:00,
2013-02-01 14:24:00,32.1,7.0,29.83,NW,313,10.0,17.0,34,0.00,,,0.00,130,weatherlink.com 1.10,2013-02-01 19:24:00,
2013-02-01 14:39:00,31.6,6.0,29.84,WNW,284,10.0,18.0,34,0.00,,,0.00,104,weatherlink.com 1.10,2013-02-01 19:39:00,
2013-02-01 14:54:00,31.6,6.0,29.85,West,273,10.0,18.0,34,0.00,,,0.00,109,weatherlink.com 1.10,2013-02-01 19:54:00,
2013-02-01 15:09:00,31.4,7.0,29.86,WNW,296,13.0,19.0,35,0.00,,,0.00,72,weatherlink.com 1.10,2013-02-01 20:09:00,
2013-02-01 15:24:00,31.2,6.0,29.86,NW,320,10.0,17.0,35,0.00,,,0.00,95,weatherlink.com 1.10,2013-02-01 20:24:00,
2013-02-01 15:39:00,31.2,7.0,29.87,WNW,296,6.0,19.0,36,0.00,,,0.00,214,weatherlink.com 1.10,2013-02-01 20:39:00,
2013-02-01 15:55:00,31.3,6.0,29.88,West,270,8.0,16.0,35,0.00,,,0.00,105,weatherlink.com 1.10,2013-02-01 20:55:00,
2013-02-01 16:10:00,31.0,8.0,29.89,West,281,4.0,18.0,38,0.00,,,0.00,53,weatherlink.com 1.10,2013-02-01 21:10:00,
2013-02-01 16:25:00,30.7,8.0,29.90,West,277,9.0,14.0,38,0.00,,,0.00,33,weatherlink.com 1.10,2013-02-01 21:25:00,
2013-02-01 16:40:00,30.6,8.0,29.91,NW,304,8.0,13.0,39,0.00,,,0.00,18,weatherlink.com 1.10,2013-02-01 21:40:00,
2013-02-01 16:55:00,30.5,8.0,29.92,NW,311,11.0,17.0,38,0.00,,,0.00,5,weatherlink.com 1.10,2013-02-01 21:55:00,
2013-02-01 17:10:00,30.3,7.0,29.93,NW,315,9.0,17.0,38,0.00,,,0.00,0,weatherlink.com 1.10,2013-02-01 22:10:00,
2013-02-01 17:25:00,30.0,7.0,29.95,West,280,7.0,18.0,38,0.00,,,0.00,0,weatherlink.com 1.10,2013-02-01 22:25:00,
2013-02-01 17:40:00,29.9,8.0,29.96,West,278,5.0,17.0,39,0.00,,,0.00,0,weatherlink.com 1.10,2013-02-01 22:40:00,
2013-02-01 17:55:00,29.7,8.0,29.98,NW,312,16.0,16.0,40,0.00,,,0.00,0,weatherlink.com 1.10,2013-02-01 22:55:00,
2013-02-01 18:10:00,29.4,7.0,29.99,NNW,332,12.0,20.0,39,0.00,,,0.00,0,weatherlink.com 1.10,2013-02-01 23:10:00,
2013-02-01 18:25:00,29.0,7.0,30.01,NW,315,2.0,20.0,39,0.00,,,0.00,0,weatherlink.com 1.10,2013-02-01 23:25:00,
2013-02-01 18:40:00,28.7,6.0,30.02,NNW,328,11.0,14.0,39,0.00,,,0.00,0,weatherlink.com 1.10,2013-02-01 23:40:00,
2013-02-01 18:55:00,28.3,7.0,30.03,NW,314,9.0,17.0,40,0.00,,,0.00,0,weatherlink.com 1.10,2013-02-01 23:55:00,
2013-02-01 19:10:00,28.0,7.0,30.04,WNW,296,3.0,13.0,41,0.00,,,0.00,0,weatherlink.com 1.10,2013-02-02 00:10:00,
2013-02-01 19:25:00,27.8,7.0,30.05,NW,321,6.0,13.0,42,0.00,,,0.00,0,weatherlink.com 1.10,2013-02-02 00:25:00,
2013-02-01 19:40:00,27.7,7.0,30.05,NW,310,10.0,14.0,42,0.00,,,0.00,0,weatherlink.com 1.10,2013-02-02 00:40:00,
2013-02-01 19:55:00,27.7,8.0,30.06,WNW,302,12.0,14.0,43,0.00,,,0.00,0,weatherlink.com 1.10,2013-02-02 00:55:00,
2013-02-01 20:10:00,27.4,7.0,30.07,NNW,333,11.0,15.0,43,0.00,,,0.00,0,weatherlink.com 1.10,2013-02-02 01:10:00,
2013-02-01 20:25:00,27.2,8.0,30.07,West,272,6.0,13.0,44,0.00,,,0.00,0,weatherlink.com 1.10,2013-02-02 01:25:00,
2013-02-01 20:40:00,27.0,8.0,30.08,WNW,303,12.0,14.0,45,0.00,,,0.00,0,weatherlink.com 1.10,2013-02-02 01:40:00,
2013-02-01 20:55:00,26.9,9.0,30.09,WSW,250,5.0,14.0,46,0.00,,,0.00,0,weatherlink.com 1.10,2013-02-02 01:55:00,
2013-02-01 21:10:00,26.7,7.0,30.09,West,271,7.0,16.0,44,0.00,,,0.00,0,weatherlink.com 1.10,2013-02-02 02:10:00,
2013-02-01 21:25:00,26.1,7.0,30.10,WSW,245,5.0,20.0,44,0.00,,,0.00,0,weatherlink.com 1.10,2013-02-02 02:25:00,
2013-02-01 21:40:00,25.7,6.0,30.10,WNW,289,9.0,16.0,43,0.00,,,0.00,0,weatherlink.com 1.10,2013-02-02 02:40:00,
2013-02-01 21:56:00,25.3,6.0,30.11,West,267,4.0,16.0,43,0.00,,,0.00,0,weatherlink.com 1.10,2013-02-02 02:56:00,
2013-02-01 22:11:00,25.1,5.0,30.12,NW,304,5.0,16.0,43,0.00,,,0.00,0,weatherlink.com 1.10,2013-02-02 03:11:00,
2013-02-01 22:26:00,24.9,5.0,30.12,West,262,5.0,16.0,43,0.00,,,0.00,0,weatherlink.com 1.10,2013-02-02 03:26:00,
2013-02-01 22:41:00,24.6,5.0,30.12,NNW,348,7.0,15.0,43,0.00,,,0.00,0,weatherlink.com 1.10,2013-02-02 03:41:00,
2013-02-01 22:56:00,24.3,5.0,30.13,West,278,12.0,14.0,43,0.00,,,0.00,0,weatherlink.com 1.10,2013-02-02 03:56:00,
2013-02-01 23:11:00,24.2,5.0,30.13,WNW,293,9.0,19.0,43,0.00,,,0.00,0,weatherlink.com 1.10,2013-02-02 04:11:00,
2013-02-01 23:26:00,24.0,4.0,30.14,WNW,291,6.0,13.0,43,0.00,,,0.00,0,weatherlink.com 1.10,2013-02-02 04:26:00,
2013-02-01 23:41:00,23.9,4.0,30.14,WNW,284,7.0,15.0,43,0.00,,,0.00,0,weatherlink.com 1.10,2013-02-02 04:41:00,
2013-02-01 23:56:00,23.8,5.0,30.15,WSW,253,3.0,20.0,44,0.00,,,0.00,0,weatherlink.com 1.10,2013-02-02 04:56:00,